STARLINK-32945, 63118

Orbit data source: Space-Track

STARLINK-32945, 63118 is a payload satellite owned by SpaceX/Seattle (US) in LEO that was launched on Thu, 27 Feb 2025 UTC via an FALCON 9 launch vehicle from the Air Force Eastern Test Range (AFETR). Payload-class satellites include a variety of spacecraft equipped with specific instruments for various scientific and technological missions. These include communications satellites like Starlink; space stations such as the ISS; scientific satellites like the Hubble; Earth observation satellites from companies like Planet Labs, Umbra, and HawkEye 360; GPS; miniature CubeSats for education and research; and military/defense satellites.

Loading next visibility...
Identifier
63118, 2025-039Q
Orbit
LEO
Last TLE update
12 hours ago
Origin
Manufacturer
SpaceX/Seattle
Mission
Operational Commercial Communications
Bus & Motor
STARLINK V2M, Unknown motor
Mass
730 kg wet, ~700 kg dry
Launch date (UTC)
2025-02-27 (2 months ago)
Launch vehicle
FALCON 9
Launch site
Air Force Eastern Test Range (AFETR)
Object type
Payload
Rocket body
Debris
Shape & HBR
Box + 2 Pan, 29 m
Radar Cross Section
33.884 m², Large (>1 m²)

Expand to show TLE details & history

TLE from 12 hours ago
0 STARLINK-32945
1 63118U 25039Q   25128.75978151  .00001161  00000-0  51690-4 0  9993
2 63118  42.9973 294.6935 0001015 257.8072 102.2666 15.27580997 11436
Epoch: 2025-05-08T18:14Z
Definitive object data (Epoch: 2025-05-08T18:14:05.122Z)
Latitude
-0.00001°
Longitude
154.34648°
Altitude
482.969 km
Speed
7.626 km/s
True Right ascension
19h 38m 46s
True Declination
0° 00' 00"
Sunlit
Object was in daylight at TLE epoch
Visualization TLE readout
Latitude
-42.60893°
Longitude
50.3211°
Altitude
495.467 km
Speed
7.618 km/s
Apparent Right ascension
07h 52m 36s
Apparent Declination
-75° 01' 41"
Sunlit
Object is in full shadow
Visualization observer readout
Local Sidereal Time
14:30:26
Azimuth
199.65° SSW
Elevation
-40.726°
Doppler factor
1
Orbital elements
Apogee altitude
485.688 km
Perigee altitude
484.295 km
Semi-major axis
6,863.129 km
Eccentricity
0.0001015
Inclination
42.9973°
RAAN
294.6935°
Arg. of periapsis
257.8072°
True anomaly
102.27797°
Mean anomaly
102.2666°
Eccentric anomaly
102.27228°
Mean motion
3.81733 °/min
BSTAR
0.00005169
Orbital period
94.31 mins
Loading maneuver chart data...
Loading SW <> Apogee altitude chart data...
Loading historical data...
Loading historical data...
Loading historical data...
Loading historical data...
Loading historical data...
Loading historical data...
Loading historical data...

STARLINK-32945 Visibility forecast

Observer location: undefined°, undefined°

Span
Click to sort rows by Start time (UTC) header in descending order
Start Az.
Max El. time (UTC)
Max El. Az.
Max El.
End time (UTC)
End Az.
4 mins2025-05-09 13:14:37.290Z174.813° S2025-05-09 13:16:37.290Z141.706° SSE14.131°2025-05-09 13:18:37.290Z108.643° ESE
6 mins2025-05-09 14:52:37.290Z234.92° WSW2025-05-09 14:54:37.290Z199.532° SSW40.235°2025-05-09 14:58:37.290Z75.278° E
6 mins2025-05-09 16:31:37.290Z280.802° WNW2025-05-09 16:34:37.290Z26.655° NE37.234°2025-05-09 16:37:37.290Z72.293° E
5 mins2025-05-09 18:11:37.290Z298.175° NW2025-05-09 18:13:37.290Z41.447° NE41.475°2025-05-09 18:16:37.290Z94.021° ESE
5 mins2025-05-09 19:50:37.290Z260.038° W2025-05-09 19:52:37.290Z190.538° SSW31.723°2025-05-09 19:55:37.290Z139.206° SSE
|